When you browse on this site, cookies collect data to enhance your experience and personalize the content and advertising you see.
Visit our Privacy Policy to learn more. By continuing to use the site, you agree to this use of cookies and data.
  • In Lithuania
  • List of Countries
  • For 7 days
  • Water Temperature
  • Satellite Maps
  • Weather Map
  • Weather Widgets
  • user-avatar
    Login

    Hourly Weather Zanzibar

    Today, 12 December, Wednesday

    Time Temperature Precipitation Wind Pressure Humidity
    00:00 +29°C° 0 mm 4 mps 759 mmHg 77%
    01:00 +29°C° 0.6 mm 3 mps 759 mmHg 80%
    02:00 +28°C° 0.6 mm 3 mps 759 mmHg 83%
    03:00 +27°C° 0 mm 3 mps 759 mmHg 86%
    04:00 +27°C° 1 mm 2 mps 759 mmHg 87%
    05:00 +27°C° 1 mm 2 mps 759 mmHg 87%
    06:00 +27°C° 1 mm 2 mps 759 mmHg 88%
    07:00 +28°C° 0.1 mm 2 mps 759 mmHg 83%
    08:00 +29°C° 0.1 mm 2 mps 760 mmHg 79%
    09:00 +31°C° 0 mm 2 mps 760 mmHg 72%
    10:00 +32°C° 0 mm 2 mps 760 mmHg 66%
    11:00 +35°C° 0 mm 2 mps 760 mmHg 59%
    12:00 +36°C° 0 mm 2 mps 759 mmHg 52%
    13:00 +36°C° 0 mm 3 mps 759 mmHg 52%
    14:00 +36°C° 0 mm 4 mps 758 mmHg 52%
    15:00 +36°C° 0 mm 4 mps 758 mmHg 51%
    16:00 +35°C° 0 mm 4 mps 758 mmHg 56%
    17:00 +34°C° 0 mm 4 mps 758 mmHg 61%
    18:00 +33°C° 0 mm 4 mps 758 mmHg 66%
    19:00 +32°C° 0.6 mm 4 mps 758 mmHg 69%
    20:00 +32°C° 0.6 mm 4 mps 759 mmHg 73%
    21:00 +30°C° 0.6 mm 4 mps 759 mmHg 76%
    22:00 +30°C° 0.2 mm 4 mps 759 mmHg 77%
    23:00 +29°C° 0.2 mm 4 mps 759 mmHg 78%

    Tomorrow, 13 December, Thursday

    Time Temperature Precipitation Wind Pressure Humidity
    00:00 +29°C° 0.2 mm 4 mps 760 mmHg 79%
    01:00 +29°C° 0.1 mm 4 mps 759 mmHg 79%
    02:00 +29°C° 0.1 mm 4 mps 759 mmHg 79%
    03:00 +29°C° 0.1 mm 4 mps 759 mmHg 80%
    04:00 +29°C° 0.1 mm 4 mps 759 mmHg 81%
    05:00 +29°C° 0.1 mm 4 mps 760 mmHg 82%
    06:00 +28°C° 0.1 mm 4 mps 760 mmHg 83%
    07:00 +30°C° 0.4 mm 4 mps 760 mmHg 78%
    08:00 +32°C° 0.4 mm 4 mps 761 mmHg 73%
    09:00 +33°C° 0.4 mm 4 mps 761 mmHg 68%
    10:00 +34°C° 0 mm 4 mps 761 mmHg 62%
    11:00 +35°C° 0 mm 4 mps 760 mmHg 57%
    12:00 +36°C° 0 mm 4 mps 760 mmHg 51%
    13:00 +36°C° 0 mm 4 mps 759 mmHg 51%
    14:00 +36°C° 0 mm 4 mps 758 mmHg 50%
    15:00 +36°C° 0 mm 5 mps 758 mmHg 50%
    16:00 +35°C° 0 mm 5 mps 758 mmHg 55%
    17:00 +34°C° 0 mm 5 mps 758 mmHg 59%
    18:00 +33°C° 0 mm 5 mps 758 mmHg 64%
    19:00 +32°C° 0.2 mm 5 mps 758 mmHg 68%
    20:00 +32°C° 0.2 mm 5 mps 759 mmHg 72%
    21:00 +30°C° 0.2 mm 5 mps 760 mmHg 76%
    22:00 +30°C° 0.2 mm 5 mps 760 mmHg 77%
    23:00 +30°C° 0.2 mm 4 mps 760 mmHg 79%

    Day after tomorrow, 14 December, Friday

    Time Temperature Precipitation Wind Pressure Humidity
    00:00 +29°C° 0.2 mm 4 mps 760 mmHg 80%
    01:00 +29°C° 0.2 mm 4 mps 760 mmHg 80%
    02:00 +29°C° 0.2 mm 4 mps 759 mmHg 81%
    03:00 +29°C° 0.2 mm 4 mps 759 mmHg 82%
    04:00 +29°C° 0 mm 4 mps 759 mmHg 82%
    05:00 +29°C° 0 mm 4 mps 759 mmHg 83%
    06:00 +28°C° 0 mm 4 mps 760 mmHg 83%
    07:00 +29°C° 0.7 mm 4 mps 760 mmHg 80%
    08:00 +30°C° 0.7 mm 4 mps 761 mmHg 76%
    09:00 +32°C° 0.7 mm 4 mps 761 mmHg 72%
    10:00 +34°C° 0 mm 4 mps 761 mmHg 66%
    11:00 +35°C° 0 mm 4 mps 760 mmHg 59%
    12:00 +36°C° 0 mm 4 mps 760 mmHg 53%
    13:00 +36°C° 0 mm 4 mps 759 mmHg 52%
    14:00 +36°C° 0 mm 5 mps 758 mmHg 52%
    15:00 +36°C° 0 mm 5 mps 757 mmHg 51%
    16:00 +35°C° 0 mm 5 mps 757 mmHg 56%
    17:00 +34°C° 0 mm 5 mps 757 mmHg 60%
    18:00 +33°C° 0 mm 5 mps 757 mmHg 64%
    19:00 +32°C° 0 mm 5 mps 758 mmHg 68%
    20:00 +32°C° 0 mm 5 mps 759 mmHg 72%
    21:00 +30°C° 0 mm 5 mps 760 mmHg 76%
    22:00 +30°C° 0.3 mm 5 mps 760 mmHg 77%
    23:00 +29°C° 0.3 mm 5 mps 760 mmHg 79%

    15 December, Saturday

    Time Temperature Precipitation Wind Pressure Humidity
    00:00 +29°C° 0.3 mm 4 mps 760 mmHg 80%
    01:00 +29°C° 0.5 mm 4 mps 759 mmHg 80%
    02:00 +29°C° 0.5 mm 4 mps 759 mmHg 81%
    03:00 +29°C° 0.5 mm 4 mps 758 mmHg 81%
    04:00 +28°C° 0.1 mm 4 mps 759 mmHg 82%
    05:00 +28°C° 0.1 mm 4 mps 759 mmHg 83%
    06:00 +28°C° 0.1 mm 4 mps 759 mmHg 84%
    07:00 +29°C° 0.7 mm 4 mps 760 mmHg 82%
    08:00 +30°C° 0.7 mm 4 mps 760 mmHg 81%
    09:00 +30°C° 0.7 mm 3 mps 761 mmHg 79%
    10:00 +33°C° 0.2 mm 4 mps 760 mmHg 70%
    11:00 +34°C° 0.2 mm 4 mps 760 mmHg 62%
    12:00 +36°C° 0.2 mm 4 mps 759 mmHg 54%
    13:00 +36°C° 0 mm 4 mps 759 mmHg 53%
    14:00 +36°C° 0 mm 4 mps 758 mmHg 52%
    15:00 +36°C° 0 mm 5 mps 757 mmHg 51%
    16:00 +35°C° 0 mm 5 mps 757 mmHg 55%
    17:00 +34°C° 0 mm 5 mps 757 mmHg 60%
    18:00 +33°C° 0 mm 5 mps 758 mmHg 64%
    19:00 +32°C° 0 mm 5 mps 758 mmHg 68%
    20:00 +30°C° 0 mm 5 mps 759 mmHg 72%
    21:00 +30°C° 0 mm 5 mps 760 mmHg 76%
    22:00 +29°C° 0.7 mm 5 mps 760 mmHg 79%
    23:00 +29°C° 0.7 mm 4 mps 760 mmHg 83%

    16 December, Sunday

    Time Temperature Precipitation Wind Pressure Humidity
    00:00 +28°C° 0.7 mm 4 mps 760 mmHg 86%
    01:00 +28°C° 1.1 mm 4 mps 759 mmHg 86%
    02:00 +28°C° 1.1 mm 4 mps 759 mmHg 86%
    03:00 +28°C° 1.1 mm 4 mps 758 mmHg 85%
    04:00 +28°C° 0 mm 4 mps 759 mmHg 85%
    05:00 +28°C° 0 mm 4 mps 759 mmHg 85%
    06:00 +28°C° 0 mm 4 mps 759 mmHg 84%
    07:00 +29°C° 0.6 mm 3 mps 760 mmHg 79%
    08:00 +30°C° 0.6 mm 3 mps 760 mmHg 74%
    09:00 +33°C° 0.6 mm 3 mps 760 mmHg 68%
    10:00 +34°C° 0.2 mm 3 mps 760 mmHg 62%
    11:00 +35°C° 0.2 mm 3 mps 759 mmHg 57%
    12:00 +36°C° 0.2 mm 4 mps 758 mmHg 51%
    13:00 +36°C° 0 mm 4 mps 758 mmHg 51%
    14:00 +36°C° 0 mm 4 mps 757 mmHg 52%
    15:00 +36°C° 0 mm 5 mps 756 mmHg 52%
    16:00 +35°C° 0 mm 5 mps 756 mmHg 56%
    17:00 +34°C° 0 mm 5 mps 757 mmHg 61%
    18:00 +33°C° 0 mm 5 mps 757 mmHg 65%
    19:00 +32°C° 0.1 mm 5 mps 758 mmHg 70%
    20:00 +32°C° 0.1 mm 5 mps 758 mmHg 74%
    21:00 +30°C° 0.1 mm 6 mps 759 mmHg 79%
    22:00 +29°C° 0.5 mm 5 mps 759 mmHg 83%
    23:00 +29°C° 0.5 mm 5 mps 759 mmHg 87%

    17 December, Monday

    Time Temperature Precipitation Wind Pressure Humidity
    00:00 +28°C° 0.5 mm 5 mps 758 mmHg 91%
    01:00 +28°C° 0.1 mm 5 mps 758 mmHg 91%
    02:00 +28°C° 0.1 mm 5 mps 758 mmHg 90%
    03:00 +28°C° 0.1 mm 5 mps 757 mmHg 90%
    04:00 +28°C° 0.2 mm 5 mps 758 mmHg 90%
    05:00 +28°C° 0.2 mm 5 mps 758 mmHg 91%
    06:00 +28°C° 0.2 mm 5 mps 758 mmHg 91%
    07:00 +29°C° 0.6 mm 5 mps 759 mmHg 87%
    08:00 +30°C° 0.6 mm 5 mps 759 mmHg 82%
    09:00 +32°C° 0.6 mm 4 mps 760 mmHg 78%
    10:00 +32°C° 0.9 mm 5 mps 759 mmHg 75%
    11:00 +33°C° 0.9 mm 5 mps 758 mmHg 73%
    12:00 +34°C° 0.9 mm 5 mps 758 mmHg 70%
    13:00 +34°C° 0.2 mm 5 mps 757 mmHg 68%
    14:00 +34°C° 0.2 mm 5 mps 757 mmHg 66%
    15:00 +34°C° 0.2 mm 6 mps 756 mmHg 64%
    16:00 +34°C° 0.4 mm 6 mps 757 mmHg 68%
    17:00 +33°C° 0.4 mm 6 mps 757 mmHg 73%
    18:00 +32°C° 0.4 mm 6 mps 757 mmHg 77%
    19:00 +30°C° 0.7 mm 5 mps 758 mmHg 80%
    20:00 +29°C° 0.7 mm 5 mps 758 mmHg 84%
    21:00 +29°C° 0.7 mm 5 mps 759 mmHg 88%
    22:00 +29°C° 0.7 mm 5 mps 758 mmHg 88%
    23:00 +29°C° 0.7 mm 6 mps 758 mmHg 88%
    Show more